Location: Township of Marena
(38.1747°N, 99.6798°W)
Time: 02:00:36
(UTC+00:00)

IRS-P2 Rocket - Pass Details

Date: 26 October 2020
Orbit: 794 x 876 km, 99.1° (Epoch: 27 November)

Event Time Altitude Azimuth Distance (km) Brightness Sun altitude
Rises 01:03:15 0° 161° (SSE) 3,280 7.6 -15.6°
Reaches altitude 10° 01:05:33 10° 159° (SSE) 2,355 6.9 -16.1°
Maximum altitude 01:10:44 78° 74° (ENE) 820 4.5 -17.1°
Drops below altitude 10° 01:16:00 10° 349° (N) 2,393 7.2 -18.1°
Sets 01:18:22 0° 348° (NNW) 3,338 7.9 -18.6°
